Home > Weather > Freiburg > Past weeks

Flag for Germany Past Weather in Freiburg, Baden-Württemberg, Germany — Yesterday and Last 2 Weeks

Now
83 °F

Scattered clouds.


Feels Like: 83 °F
Forecast: 58 / 72 °F
Wind: 5 mph from Southwest

Location: Freiburg

Current Time: Jul 30, 2016 at 8:52:42 PM

Latest Report: Jul 30, 2016 at 7:00 PM


Visibility: 44 mi

Pressure: 29.86 "Hg

Humidity: 45%

Dew Point: 59 °F

Location of FreiburgLocation

Past Weather in Freiburg — Graph

°F

Freiburg Temperature Yesterday

Maximum temperature yesterday: 81 °F (at 6:00 PM)
Minimum temperature yesterday: 66 °F (at 3:00 AM)
Average temperature yesterday: 74 °F

High & Low Weather Summary for the Past Weeks

 TemperatureHumidityPressure
High93 °F (Jul 20, 6:00 PM)99% (Jul 20, 6:00 AM)30.36 "Hg (Jul 20, 6:00 AM)
Low46 °F (Jul 16, 6:00 AM)27% (Jul 20, 4:00 PM)29.86 "Hg (Jul 30, 7:00 PM)
Average71 °F70%30.07 "Hg
* Reported Jul 15 7:00 PM — Jul 30 7:00 PM, Freiburg, Weather by CustomWeather, © 2016

Note: Actual official high and low records may vary slightly from our data, if they occured in-between our weather recording intervals... More about our weather records

Advertising

Freiburg Weather History for the Previous 24 Hours

Scroll right to see more
 ConditionsComfort  
Time TempWeatherWind HumidityBarometerVisibility
7:00 PM
Sat, Jul 30
83 °FScattered clouds.5 mph45%29.86 "Hg43 mi
6:00 PM84 °FPartly sunny.6 mph40%29.88 "Hg37 mi
4:00 PM87 °FSunny.8 mph36%29.88 "Hg22 mi
3:00 PM85 °FSunny.6 mph44%29.89 "Hg28 mi
1:00 PM82 °FSunny.3 mph51%29.92 "Hg25 mi
12:00 PM78 °FPartly sunny.2 mph61%29.93 "Hg43 mi
10:00 AM71 °FPartly sunny.2 mph72%29.96 "Hg37 mi
9:00 AM69 °FOvercast.2 mph74%29.96 "Hg31 mi
7:00 AM62 °FPartly sunny.1 mph93%29.97 "Hg22 mi
6:00 AM61 °FOvercast.1 mph93%29.98 "Hg28 mi
4:00 AM60 °FClear.No wind97%29.98 "Hg19 mi
3:00 AM60 °FClear.No wind93%29.98 "Hg25 mi
1:00 AM65 °FOvercast.1 mph83%29.98 "Hg31 mi
12:00 AM66 °FClear.1 mph81%29.98 "Hg37 mi
11:00 PM
Fri, Jul 29
N/APassing clouds.5 mphN/AN/A2 mi
10:00 PM75 °FPassing clouds.3 mph59%29.95 "Hg43 mi
9:00 PM76 °FSunny.5 mph55%29.94 "Hg43 mi
Weather by CustomWeather, © 2016

See weather overviewHow to use our weather pages